Wind_Speed
21 21 21 20 19 18 18 17 17 16 16 17 16 15 14 13 13 13 12 12 13 13 12 12 13 13 13 13 13 14 14 14 14 14 14 14 14 14 14 14 14 14 14 14 15 15 16 17 17 17 17 18
22 22 22 21 20 19 18 18 18 17 17 17 16 15 14 14 13 13 13 13 14 14 13 13 13 13 14 13 14 14 14 14 14 14 14 14 14 15 15 15 15 15 15 16 16 17 18 18 19 19 19 20
23 23 23 22 20 19 19 19 19 18 18 18 17 15 14 14 14 14 14 13 14 14 14 14 14 14 14 14 14 15 15 15 15 15 15 15 15 15 15 16 16 16 16 17 17 18 19 19 20 20 20 21
24 24 24 22 21 20 19 20 20 19 19 18 17 15 15 15 15 15 15 14 14 15 14 14 14 15 15 15 15 16 16 15 15 15 15 15 15 16 16 16 17 17 17 17 18 18 19 19 20 21 21 22
25 25 24 23 21 20 20 21 20 20 20 19 17 16 15 15 15 16 16 16 15 15 15 15 15 15 16 16 17 17 17 16 16 16 15 15 15 16 16 16 17 18 18 18 18 19 19 20 20 21 22 23
26 25 25 24 22 21 21 22 21 21 21 20 18 17 16 16 16 16 17 17 16 15 15 15 15 16 16 17 17 18 18 17 16 16 16 16 15 16 16 16 17 18 18 19 19 19 20 20 21 22 23 23
27 26 26 25 23 22 22 22 23 22 22 20 19 18 17 17 16 17 17 18 17 16 16 16 16 16 16 17 18 18 18 18 17 16 16 16 16 16 16 16 17 17 18 19 19 20 20 21 22 23 24 24
27 26 26 26 24 23 23 23 24 23 22 21 19 19 18 18 17 18 18 18 18 17 17 16 16 16 17 17 18 18 19 18 17 17 17 16 16 16 15 15 16 17 18 19 20 20 21 22 23 24 24 25
27 27 27 26 25 24 24 24 25 24 23 22 20 19 19 19 19 19 19 19 19 19 18 17 17 16 16 17 18 19 19 19 18 17 17 17 17 16 16 15 15 16 17 18 19 20 21 22 23 24 25 26
28 27 27 27 26 25 24 25 26 25 24 23 21 20 20 20 20 20 20 20 20 20 19 18 18 17 17 17 18 19 19 19 18 18 18 17 17 17 16 16 15 15 16 17 18 19 21 22 23 25 26 27
28 27 28 27 27 26 25 26 26 26 25 24 22 21 20 20 21 21 22 22 21 21 21 20 19 18 17 17 18 19 20 19 19 18 18 18 18 18 17 17 16 16 16 17 18 19 20 22 23 25 26 28
28 28 28 28 27 27 26 26 27 27 26 24 23 22 21 21 21 22 23 23 23 23 22 22 21 20 19 18 19 20 20 20 19 19 18 18 18 18 18 17 17 17 17 18 18 19 20 22 23 25 26 28
28 29 29 28 28 27 27 27 27 27 27 25 24 22 22 22 22 22 23 24 24 24 24 24 23 22 21 20 19 20 21 21 20 19 18 18 19 19 19 19 18 18 18 18 19 20 20 22 23 24 26 27
30 29 29 29 29 28 27 27 28 28 27 26 25 23 23 23 23 23 24 25 25 26 25 25 25 24 23 21 20 21 21 21 21 20 19 18 19 19 19 19 19 19 19 19 19 20 20 21 22 24 25 27
31 31 30 29 29 29 28 28 29 28 28 27 25 24 24 23 24 24 24 25 26 26 26 26 26 26 25 24 22 22 22 22 22 21 20 19 19 19 19 19 19 19 19 19 19 20 21 22 23 24 25 27
32 32 31 30 30 29 29 29 29 29 28 28 26 25 25 25 25 25 25 26 26 27 27 27 27 26 26 25 24 23 23 23 23 22 21 20 20 20 20 20 20 19 20 20 20 21 21 22 23 25 26 27
34 33 32 31 31 30 30 30 30 30 29 28 27 26 26 26 26 26 26 26 27 27 27 27 27 27 27 26 25 24 24 24 24 23 22 22 21 21 21 21 21 21 21 21 21 22 23 23 24 25 26 27
35 34 33 32 31 30 30 30 30 30 30 30 28 27 27 27 27 27 27 27 27 27 27 28 28 28 27 27 26 26 25 25 25 25 24 23 23 23 23 23 23 23 23 23 24 24 24 25 26 27 28 29
36 35 34 33 32 31 31 31 31 30 31 31 29 28 28 28 28 28 28 28 28 28 28 28 28 28 28 27 27 27 26 26 26 26 26 25 25 25 25 26 26 26 26 26 26 27 27 27 28 29 29 30
37 35 34 34 33 32 31 31 31 31 32 32 31 29 29 28 29 29 29 29 29 29 28 28 28 28 29 28 28 28 28 28 28 28 27 27 27 28 28 28 29 29 29 29 29 30 30 30 30 31 31 32
38 36 35 34 33 32 32 32 32 32 33 33 32 31 30 30 30 30 30 30 30 30 29 29 28 29 29 29 28 28 28 28 29 29 29 29 29 30 30 31 31 32 32 32 32 32 32 32 33 33 33 34
39 37 36 35 34 33 33 33 33 34 34 34 34 33 32 31 31 31 31 31 31 31 31 30 29 29 29 29 29 29 29 29 29 30 31 31 32 32 33 33 34 34 34 34 35 35 35 35 35 35 35 35
40 39 37 36 36 35 35 35 35 35 36 36 35 34 34 33 32 32 32 32 32 32 32 31 30 29 29 29 29 29 29 29 30 31 32 33 34 34 35 35 35 36 36 37 37 37 37 37 37 37 37 37
41 40 39 38 37 37 36 36 36 36 36 36 36 36 35 34 33 33 33 33 33 33 33 32 31 30 30 29 29 30 30 30 30 31 32 33 35 36 37 37 37 37 38 38 39 39 39 39 39 39 39 39
41 41 40 39 39 38 37 37 37 37 37 37 37 36 36 35 35 35 35 35 35 34 34 33 32 31 31 30 30 30 30 30 31 31 32 33 35 36 37 38 39 39 39 40 40 40 41 41 41 41 41 40
41 42 41 41 40 39 38 37 37 37 37 37 37 37 36 36 36 36 36 37 37 36 35 34 33 33 33 32 31 31 31 31 31 32 32 33 34 35 36 38 39 39 40 40 41 41 41 42 42 42 42 41
42 43 42 42 41 40 39 38 37 37 37 37 38 38 38 38 38 39 39 40 39 37 36 35 34 34 35 34 33 33 33 32 32 32 33 34 34 35 36 37 38 39 40 41 41 41 42 42 42 42 42 42
43 43 43 42 42 41 40 38 38 38 38 39 40 41 41 42 42 43 43 43 41 38 36 35 34 35 36 36 35 35 35 34 34 34 34 34 35 36 37 37 38 39 40 40 40 41 42 42 42 43 43 43
43 44 44 43 43 42 41 40 39 39 40 41 43 44 45 45 46 45 45 43 40 38 37 35 36 37 38 37 37 37 37 36 36 36 36 36 36 37 37 38 39 39 40 40 41 41 42 42 43 43 43 44
42 43 44 44 44 43 42 41 41 41 42 44 45 45 46 46 46 45 44 42 40 39 38 38 39 40 40 39 39 39 39 38 38 38 38 38 38 38 38 39 40 40 41 41 41 41 42 42 43 43 44 44
43 43 44 45 45 45 44 43 42 43 44 45 46 46 46 46 45 45 44 43 42 41 41 41 42 42 42 41 41 41 40 39 39 39 40 40 40 39 40 40 41 42 42 42 42 41 42 43 43 44 44 45
Wind_Direction
248 248 249 251 256 265 269 267 266 267 268 269 272 275 280 285 290 295 300 301 303 305 307 309 311 314 316 317 316 313 310 306 302 297 293 289 286 283 281 279 278 278 278 278 277 277 276 275 274 273 271 269
246 247 248 250 256 264 267 265 263 264 263 265 268 271 276 280 285 289 293 295 298 301 303 306 310 314 316 318 318 316 313 309 304 298 293 289 286 283 281 279 277 276 276 276 276 275 275 274 274 272 271 269
245 246 248 250 256 264 266 262 260 260 260 262 264 268 273 277 281 284 286 290 293 296 300 304 309 314 318 321 322 321 318 315 310 303 296 290 286 283 280 278 276 274 272 271 271 271 272 272 272 271 270 269
244 245 247 250 256 263 264 259 257 257 258 259 262 265 270 275 279 282 284 287 290 294 298 302 309 315 320 324 326 325 322 318 315 311 305 296 289 283 279 276 274 272 269 267 267 267 268 269 269 269 269 269
243 245 246 249 255 262 263 258 255 255 256 257 260 263 267 273 278 281 284 286 288 292 296 301 307 313 319 323 325 325 323 320 317 315 311 304 295 287 281 276 273 271 269 267 266 266 266 267 267 268 269 269
242 244 246 249 255 261 262 257 254 254 254 255 257 261 265 270 276 280 283 285 287 290 294 298 303 309 314 318 321 323 322 320 318 316 314 310 303 295 287 280 276 273 271 270 268 268 267 267 268 268 269 269
242 244 246 249 254 261 261 256 253 253 252 253 256 259 264 268 274 278 281 284 286 289 292 294 297 302 308 312 316 320 321 320 319 318 316 314 309 303 295 288 283 279 276 274 272 271 270 270 270 270 270 270
242 244 246 249 254 261 261 256 253 252 252 252 254 258 262 267 271 276 280 283 285 287 289 290 293 297 302 307 311 314 317 318 319 320 319 316 313 308 303 296 290 286 282 280 278 276 275 274 273 273 272 272
241 244 246 248 254 261 260 255 252 251 251 251 254 257 261 266 270 275 278 281 284 285 286 287 289 292 296 301 305 308 312 315 318 319 319 318 315 313 310 306 301 296 292 289 286 283 281 279 278 277 277 276
241 243 245 248 254 260 259 254 252 251 251 251 253 256 260 265 269 274 277 279 282 283 285 285 286 287 290 294 298 302 306 310 314 317 318 318 317 316 315 312 309 305 300 296 293 290 288 286 285 284 283 282
240 242 244 248 253 259 258 253 251 251 251 251 253 256 260 264 268 272 275 278 280 282 284 284 284 284 285 288 292 295 300 305 309 313 316 317 317 315 314 312 310 307 304 301 299 298 296 294 292 291 290 288
239 241 243 247 253 258 257 252 250 250 250 251 252 255 258 262 267 271 274 277 279 281 282 284 283 281 281 282 286 289 293 298 303 308 311 313 313 312 311 310 309 308 308 307 305 304 302 300 298 296 294 292
238 240 243 247 253 257 255 251 249 249 250 250 252 254 258 261 265 270 273 277 279 281 282 283 283 280 278 278 281 284 287 292 297 301 305 307 309 309 309 310 310 310 310 309 308 307 305 303 301 299 297 295
237 239 242 246 252 255 254 250 248 248 249 250 251 254 257 260 264 268 272 276 279 281 282 282 282 280 277 276 277 280 283 286 290 294 298 300 303 305 307 308 309 310 310 310 309 307 306 304 303 301 300 299
236 238 241 246 251 254 252 249 247 248 248 249 251 253 256 259 263 267 271 275 279 282 284 283 283 281 277 274 274 276 279 282 284 288 291 294 297 300 304 306 306 307 307 307 307 307 307 306 305 304 304 303
236 238 241 246 250 252 250 247 246 246 248 249 250 252 255 258 261 265 270 274 279 282 285 285 284 282 278 273 271 272 274 277 279 282 286 289 292 295 299 301 303 303 304 305 306 306 307 308 308 308 308 308
236 237 241 245 249 250 248 246 245 245 247 248 249 252 254 257 260 264 268 273 277 281 285 286 285 283 279 274 270 270 271 273 276 278 282 285 288 290 293 295 297 299 300 301 303 304 306 307 308 309 310 310
236 237 240 244 248 249 247 246 244 245 247 248 249 251 253 256 259 263 267 272 276 280 284 286 285 284 281 276 271 269 270 271 273 276 278 282 284 286 288 290 292 294 295 297 299 301 302 304 306 307 308 310
236 237 240 244 247 248 246 245 244 244 246 248 249 250 253 256 259 262 266 271 275 279 282 284 285 284 282 278 273 270 269 270 272 274 276 278 281 283 285 287 289 290 292 294 295 297 299 300 302 303 305 307
237 238 240 244 246 246 245 244 243 243 245 247 249 250 252 255 258 262 266 270 274 277 280 283 284 283 282 279 276 273 270 270 271 272 274 276 278 280 283 284 286 288 290 292 293 294 296 297 299 300 302 304
237 238 240 243 245 244 244 243 242 242 244 246 248 249 251 254 257 261 265 269 273 275 278 281 282 282 281 279 278 275 273 271 271 272 273 275 277 279 280 282 284 286 288 290 291 293 294 295 296 297 299 301
237 238 240 241 243 243 242 241 240 241 243 245 247 248 250 252 256 260 264 268 271 274 277 279 281 281 280 279 278 277 275 273 273 273 273 274 275 277 279 280 282 284 286 288 290 291 292 293 294 296 297 299
237 238 239 241 242 241 240 240 240 240 242 244 246 248 250 252 255 259 263 266 269 273 275 278 279 280 279 278 278 278 277 276 275 274 274 274 274 276 277 279 281 283 285 286 288 289 291 292 293 294 295 297
237 239 240 241 241 241 240 240 240 241 243 244 246 248 251 253 255 258 261 264 267 270 273 276 278 280 279 278 277 277 277 277 276 275 275 275 275 275 276 278 280 281 283 285 286 288 289 291 292 293 294 296
237 239 240 241 241 241 240 241 241 242 244 246 248 250 253 255 256 258 259 261 264 267 271 275 278 279 278 277 276 276 276 277 277 277 277 276 276 276 277 278 279 280 282 283 285 286 288 290 291 292 293 295
237 239 241 242 242 241 240 241 241 242 245 247 249 251 252 254 255 256 257 258 261 264 268 273 277 279 278 277 276 276 276 277 277 278 278 278 278 278 278 279 280 281 282 283 284 285 287 288 289 291 292 294
237 239 241 242 242 242 241 241 241 243 245 246 247 249 250 250 251 253 254 256 259 262 267 272 277 278 277 277 277 277 277 277 277 278 278 279 279 280 280 280 281 281 282 283 284 285 286 287 289 290 291 293
237 239 241 243 243 243 243 242 241 242 244 245 246 246 247 247 248 250 252 255 258 262 267 272 275 276 275 276 277 277 278 278 279 279 279 279 280 281 281 281 282 282 283 284 284 285 286 287 289 290 291 293
237 240 242 243 245 245 244 243 242 242 243 244 245 245 246 248 249 251 254 258 261 265 268 270 271 272 273 274 276 277 278 279 280 280 281 281 281 282 282 283 283 283 284 284 285 285 286 288 289 290 291 292
237 240 243 245 246 246 245 244 243 243 244 245 247 248 250 252 254 256 258 261 263 264 266 266 267 269 271 273 274 276 278 279 281 282 283 283 283 284 284 284 284 285 285 285 285 285 286 288 289 290 291 292
237 239 242 245 247 247 247 246 245 245 246 247 248 250 252 254 256 257 259 261 262 263 263 265 267 269 270 271 273 275 277 279 281 282 283 284 285 286 286 286 285 286 286 286 287 287 287 288 289 290 291 292
Height
5781 5782 5782 5782 5782 5782 5782 5783 5783 5783 5783 5783 5783 5783 5783 5782 5782 5781 5781 5780 5780 5780 5779 5779 5778 5778 5777 5776 5775 5774 5774 5773 5773 5772 5772 5772 5772 5771 5771 5771 5771 5771 5771 5771 5771 5771 5771 5771 5772 5772 5771 5771
5779 5779 5780 5780 5780 5780 5780 5780 5781 5781 5781 5781 5781 5781 5781 5781 5780 5780 5780 5779 5778 5778 5778 5777 5777 5776 5775 5775 5774 5773 5772 5772 5771 5771 5770 5770 5770 5769 5769 5769 5769 5769 5769 5769 5769 5769 5769 5769 5769 5769 5769 5769
5776 5777 5777 5778 5778 5778 5778 5778 5779 5779 5779 5779 5779 5779 5779 5779 5778 5778 5778 5778 5777 5776 5776 5776 5775 5774 5774 5773 5772 5771 5770 5770 5769 5769 5768 5768 5768 5767 5767 5767 5767 5767 5766 5766 5767 5767 5767 5767 5767 5767 5767 5767
5774 5774 5775 5775 5775 5776 5776 5776 5776 5777 5777 5777 5777 5777 5777 5777 5777 5776 5776 5776 5775 5774 5774 5774 5773 5772 5772 5771 5770 5769 5769 5768 5767 5767 5766 5766 5765 5765 5765 5765 5765 5765 5764 5764 5764 5764 5764 5764 5764 5765 5765 5765
5771 5771 5772 5772 5773 5773 5773 5774 5774 5775 5775 5775 5775 5775 5775 5775 5775 5774 5774 5774 5773 5773 5772 5771 5771 5770 5770 5769 5768 5768 5767 5766 5766 5765 5765 5764 5764 5763 5763 5763 5762 5762 5762 5762 5762 5761 5761 5762 5762 5762 5762 5762
5768 5768 5769 5770 5770 5771 5771 5771 5772 5772 5773 5773 5773 5773 5773 5773 5772 5772 5772 5772 5771 5771 5770 5769 5769 5768 5768 5767 5766 5766 5765 5765 5764 5764 5763 5762 5762 5761 5761 5760 5760 5760 5760 5760 5759 5759 5759 5759 5759 5759 5759 5759
5765 5766 5766 5767 5768 5768 5768 5769 5769 5770 5770 5770 5770 5770 5770 5770 5770 5770 5770 5770 5769 5769 5768 5767 5767 5766 5766 5765 5765 5764 5763 5763 5762 5762 5761 5761 5760 5759 5759 5758 5758 5758 5757 5757 5757 5757 5756 5756 5756 5756 5756 5756
5762 5763 5764 5764 5765 5765 5766 5766 5767 5767 5768 5768 5768 5768 5768 5768 5768 5768 5768 5767 5767 5767 5766 5766 5765 5764 5764 5763 5763 5762 5762 5761 5761 5760 5759 5759 5758 5758 5757 5756 5756 5756 5755 5755 5755 5755 5754 5754 5754 5754 5753 5753
5759 5760 5760 5761 5762 5763 5763 5764 5764 5765 5765 5765 5765 5765 5765 5765 5765 5765 5765 5765 5765 5765 5764 5764 5763 5762 5762 5761 5761 5760 5760 5759 5759 5758 5758 5757 5757 5756 5755 5755 5754 5754 5753 5753 5753 5753 5752 5752 5752 5751 5751 5751
5756 5757 5757 5758 5759 5760 5760 5761 5761 5762 5762 5763 5762 5763 5763 5763 5763 5763 5763 5763 5763 5762 5762 5761 5761 5760 5760 5760 5759 5759 5758 5758 5757 5756 5756 5755 5754 5754 5753 5753 5752 5752 5751 5751 5751 5750 5750 5750 5749 5749 5749 5748
5753 5753 5754 5755 5756 5757 5757 5758 5759 5759 5760 5760 5760 5760 5760 5760 5760 5760 5760 5760 5760 5760 5759 5759 5759 5758 5758 5758 5757 5757 5757 5756 5755 5755 5754 5753 5753 5752 5751 5751 5750 5750 5749 5749 5748 5748 5747 5747 5747 5746 5746 5745
5749 5750 5751 5752 5753 5754 5754 5755 5756 5756 5757 5757 5757 5757 5757 5757 5757 5758 5758 5757 5757 5757 5757 5757 5756 5756 5755 5755 5755 5755 5755 5754 5753 5753 5752 5751 5751 5750 5750 5749 5748 5748 5747 5746 5746 5745 5745 5744 5744 5743 5743 5742
5746 5747 5748 5749 5750 5751 5751 5752 5753 5753 5754 5754 5754 5755 5755 5755 5755 5755 5755 5755 5755 5755 5754 5754 5754 5753 5753 5753 5753 5753 5752 5752 5751 5751 5750 5750 5749 5748 5748 5747 5746 5745 5745 5744 5743 5743 5742 5742 5741 5741 5740 5739
5743 5743 5744 5746 5747 5747 5748 5749 5749 5750 5751 5751 5752 5752 5752 5752 5752 5752 5752 5752 5752 5752 5752 5751 5751 5751 5750 5750 5750 5750 5750 5749 5749 5748 5748 5748 5747 5746 5746 5745 5744 5743 5742 5742 5741 5741 5740 5739 5739 5738 5737 5736
5739 5740 5741 5742 5743 5744 5745 5746 5746 5747 5747 5748 5749 5749 5749 5749 5749 5749 5749 5749 5749 5749 5749 5748 5748 5748 5748 5747 5747 5747 5747 5747 5746 5746 5746 5745 5745 5744 5743 5742 5742 5741 5740 5739 5739 5738 5737 5737 5736 5735 5734 5733
5735 5736 5737 5739 5739 5740 5741 5742 5743 5743 5744 5745 5745 5746 5746 5746 5746 5746 5746 5746 5745 5745 5745 5745 5745 5745 5745 5745 5744 5744 5744 5744 5743 5743 5743 5742 5742 5741 5741 5740 5739 5738 5738 5737 5736 5735 5735 5734 5733 5732 5731 5730
5732 5733 5734 5735 5736 5737 5738 5739 5739 5740 5741 5741 5742 5743 5743 5743 5743 5743 5742 5742 5742 5742 5742 5742 5742 5742 5742 5742 5741 5741 5741 5741 5740 5740 5740 5739 5739 5738 5738 5737 5737 5736 5735 5734 5733 5732 5732 5731 5730 5729 5727 5726
5728 5729 5730 5731 5732 5733 5734 5735 5736 5737 5737 5738 5739 5739 5740 5740 5739 5739 5739 5739 5739 5739 5739 5739 5739 5739 5739 5738 5738 5738 5738 5737 5737 5737 5736 5736 5736 5735 5735 5734 5734 5733 5732 5731 5730 5729 5728 5727 5726 5725 5724 5722
5724 5726 5727 5728 5729 5729 5730 5731 5732 5733 5734 5734 5735 5736 5736 5736 5736 5736 5736 5736 5735 5735 5735 5735 5735 5735 5735 5735 5735 5734 5734 5734 5733 5733 5733 5732 5732 5732 5731 5731 5730 5730 5729 5728 5727 5726 5725 5724 5722 5721 5720 5719
5721 5722 5723 5724 5724 5726 5727 5727 5729 5729 5730 5731 5731 5732 5733 5733 5733 5733 5733 5732 5732 5732 5732 5731 5731 5731 5731 5731 5731 5731 5730 5730 5730 5729 5729 5729 5729 5728 5728 5727 5727 5726 5725 5724 5723 5722 5721 5720 5719 5717 5716 5715
5717 5718 5719 5720 5720 5722 5723 5723 5724 5725 5726 5727 5727 5728 5729 5729 5729 5729 5729 5729 5729 5728 5728 5728 5727 5727 5727 5727 5727 5727 5726 5726 5726 5726 5725 5725 5725 5724 5724 5723 5723 5722 5721 5720 5719 5718 5717 5716 5715 5713 5712 5711
5713 5714 5715 5716 5716 5717 5718 5719 5720 5721 5722 5723 5723 5724 5725 5725 5726 5726 5726 5725 5725 5724 5724 5724 5724 5723 5723 5723 5723 5723 5723 5722 5722 5722 5721 5721 5721 5720 5720 5719 5719 5718 5717 5716 5715 5714 5713 5712 5710 5709 5708 5706
5708 5709 5710 5711 5712 5713 5713 5714 5715 5716 5717 5719 5720 5720 5721 5721 5722 5722 5722 5721 5721 5721 5720 5720 5720 5720 5719 5719 5719 5719 5719 5718 5718 5717 5717 5717 5717 5716 5716 5715 5714 5714 5713 5712 5711 5710 5708 5707 5706 5704 5703 5702
5704 5705 5706 5707 5707 5708 5708 5709 5711 5712 5713 5715 5716 5717 5717 5718 5718 5718 5717 5717 5717 5716 5716 5716 5716 5716 5715 5715 5715 5715 5715 5714 5714 5713 5713 5713 5712 5712 5711 5711 5710 5709 5708 5707 5706 5705 5704 5702 5701 5700 5698 5697
5699 5700 5701 5702 5703 5703 5704 5706 5707 5708 5710 5711 5712 5713 5714 5714 5714 5713 5713 5713 5712 5712 5712 5712 5712 5712 5711 5711 5711 5711 5711 5710 5710 5709 5709 5708 5708 5707 5706 5706 5705 5704 5704 5702 5701 5700 5699 5697 5696 5694 5693 5692
5694 5695 5696 5697 5698 5699 5701 5702 5703 5705 5706 5707 5708 5709 5710 5710 5709 5709 5708 5708 5708 5708 5708 5708 5708 5708 5707 5707 5707 5707 5706 5706 5706 5705 5704 5704 5703 5703 5702 5701 5700 5699 5699 5698 5696 5695 5694 5692 5691 5689 5688 5687
5689 5690 5691 5692 5693 5695 5696 5698 5699 5700 5702 5703 5704 5704 5705 5704 5704 5703 5703 5702 5703 5704 5704 5704 5704 5704 5703 5703 5702 5702 5702 5702 5701 5701 5700 5699 5699 5698 5697 5696 5695 5695 5693 5692 5691 5690 5689 5687 5686 5684 5683 5682
5684 5685 5686 5687 5688 5690 5692 5693 5695 5696 5697 5698 5698 5698 5698 5698 5698 5697 5697 5698 5699 5700 5700 5700 5700 5699 5699 5698 5698 5698 5697 5697 5697 5696 5695 5695 5694 5693 5692 5691 5691 5690 5689 5687 5686 5685 5684 5682 5681 5679 5678 5677
5680 5681 5682 5683 5684 5685 5687 5688 5690 5691 5691 5691 5691 5691 5692 5692 5692 5693 5694 5695 5696 5696 5696 5696 5695 5695 5694 5694 5693 5693 5692 5692 5692 5691 5691 5690 5689 5688 5688 5687 5686 5685 5684 5683 5682 5680 5679 5677 5676 5674 5673 5671
5676 5677 5677 5678 5679 5680 5682 5683 5684 5685 5685 5686 5686 5687 5688 5688 5689 5690 5691 5692 5692 5692 5692 5691 5691 5690 5689 5689 5689 5688 5688 5687 5687 5686 5686 5685 5684 5684 5683 5682 5681 5680 5679 5678 5677 5675 5674 5673 5671 5669 5668 5666
5671 5672 5673 5673 5674 5675 5676 5678 5679 5680 5680 5681 5682 5683 5684 5685 5686 5687 5687 5688 5688 5687 5687 5686 5686 5685 5685 5684 5684 5683 5683 5683 5682 5682 5681 5680 5680 5679 5678 5677 5676 5675 5674 5673 5671 5670 5669 5667 5666 5664 5662 5661